User: anonymous   Login
Location: Dead Woman Crossing
(43.5369°N, 106.3228°W)
Time: 07:20:37
(UTC+00:00)
Language:

BEESAT 2 - Orbit

View from above orbital plane
View from above orbital plane
View from above satellite
View from above satellite

Ground track
Ground track

The orbit data is extracted from the following two-line orbital elements,

1 39136U 13015G   22175.85997824  .00006508  00000-0  28273-3 0  9995
2 39136  64.8755  81.9994 0016606 296.5202  63.4224 15.23025454507042
Epoch (UTC): 24 June 2022 20:38:22
Eccentricity: 0.0016606
inclination: 64.8755°
perigee height: 485 km
apogee height: 508 km
right ascension of ascending node: 81.9994°
argument of perigee: 296.5202°
revolutions per day: 15.23025454
mean anomaly at epoch: 63.4224°
orbit number at epoch: 50704

The dashed part of the orbit path shows where the satellite is in the earth's shadow,  

DLR